Location: Unspecified
(35.7250°N, 0.0000°E)
Time: 21:42:56
(UTC+00:00)

Vanguard 2 - Pass Details

Date: 19 June 2019
Orbit: 553 x 2938 km, 32.9° (Epoch: 18 July)

Event Time Altitude Azimuth Distance (km) Brightness Sun altitude
Rises 15:29:02 0° 278° (W) 5,401 12.6 43.8°
Reaches altitude 10° 15:32:42 10° 269° (W) 4,711 12.7 43.0°
Maximum altitude 15:44:33 33° 213° (SSW) 3,867 11.8 40.6°
Drops below altitude 10° 15:59:10 10° 158° (SSE) 5,759 11.8 37.6°
Sets 16:04:22 0° 149° (SSE) 6,721 12.0 36.6°
